Location: Bottens
(46.6171°N, 6.6605°E)
Time: 01:20:10
(UTC+00:00)

Meteor 1-28 Rocket - Pass Details

Date: 20 June 2021
Orbit: 502 x 523 km, 97.4° (Epoch: 04 August)

Event Time Altitude Azimuth Distance (km) Brightness Sun altitude
Exits shadow 02:45:52 - 202° (SSW) 1,882 5.5 -7.7°
Reaches altitude 10° 02:46:13 10° 204° (SSW) 1,754 5.3 -7.7°
Maximum altitude 02:49:31 28° 265° (W) 1,010 4.3 -7.3°
Drops below altitude 10° 02:52:50 10° 325° (NW) 1,771 6.1 -6.9°
Sets 02:55:11 0° 337° (NNW) 2,666 7.1 -6.6°
